Dewpoint
60 59 59 59 59 59 59 59 58 58 58 58 58 58 57 58 59 59 60 60 60 60 60 60 59 58 58 57 57 57 57 56 55 55 54 54 54 55 55 55 55 56 57 57 57 57 56 54 50 46 48 50 50 51 53 55 56 55 53 55 55 55 56 59 61 61 60 60 59 59 59 59 59 59 59 59 59 58 58 57 57 57 57 56 56 56 57 57 57 58 58 58 58 58 58 58 58 59 59 59 59 59 59
60 59 59 59 59 59 59 59 59 59 59 59 59 59 59 59 61 62 62 61 61 61 60 60 59 59 58 57 57 57 56 55 55 54 54 54 54 54 54 54 55 55 56 57 57 57 57 54 49 47 49 50 50 51 53 54 54 54 53 54 55 55 58 59 60 60 60 59 59 59 59 58 58 58 58 58 58 57 57 57 56 56 56 56 56 56 56 56 56 56 56 57 57 57 57 57 58 58 58 58 58 58 59
60 59 59 59 59 59 59 59 60 60 62 62 61 61 61 62 63 64 64 62 61 61 60 60 59 58 58 57 56 56 55 55 54 54 53 53 53 53 53 54 54 55 56 57 57 57 56 55 51 48 50 50 51 52 53 55 54 53 54 55 55 55 58 59 59 59 59 59 59 58 58 58 58 57 57 57 57 57 56 56 56 56 56 56 56 56 56 56 56 56 56 56 56 56 56 56 57 57 57 57 57 58 58
59 59 59 59 59 60 60 60 61 63 64 65 65 64 64 64 64 64 64 63 62 61 60 59 59 58 57 56 55 55 55 54 54 53 53 53 53 53 53 53 54 55 55 56 57 56 55 56 54 51 50 51 51 52 54 56 56 55 54 55 56 57 58 59 59 59 59 58 58 58 58 57 57 57 57 57 56 56 56 56 56 56 56 57 57 57 57 57 57 56 56 56 56 56 56 56 56 56 56 56 56 57 57
59 59 59 59 60 61 62 63 63 64 64 64 65 65 64 64 64 63 64 62 61 61 60 59 58 57 56 55 55 54 54 54 53 53 53 52 52 52 52 53 53 54 55 56 57 56 52 54 53 51 50 51 52 52 53 56 57 56 55 55 56 57 58 58 58 58 58 58 58 58 57 57 57 57 57 57 56 56 56 56 56 56 56 57 57 58 58 58 58 58 57 57 57 57 56 56 56 56 56 56 56 56 56
59 59 59 59 60 62 64 64 64 63 63 63 64 64 64 63 62 62 62 62 61 60 59 58 57 56 55 54 53 53 53 53 53 52 52 52 51 51 52 52 53 54 55 55 56 55 52 50 49 50 51 52 52 52 53 55 55 54 54 55 57 59 57 57 57 57 58 58 58 58 58 58 58 57 57 57 57 57 57 56 56 56 56 56 57 57 58 58 58 58 58 58 58 58 58 57 57 57 57 57 56 56 56
59 59 59 59 61 63 64 63 62 61 61 62 62 62 62 62 61 61 61 60 60 59 58 57 56 55 54 52 51 51 52 52 52 52 51 51 51 51 51 52 53 53 55 55 55 55 52 48 48 50 51 52 52 52 52 54 55 54 53 55 57 58 57 57 57 57 58 58 59 59 58 58 58 58 57 57 57 56 56 56 56 56 56 56 56 56 56 57 58 58 58 58 58 58 58 58 58 58 57 57 57 57 57
59 59 59 59 60 62 63 62 61 60 61 61 61 61 61 60 60 60 60 59 59 58 57 56 55 54 53 52 51 51 51 52 51 51 51 51 50 51 51 51 52 53 54 55 55 55 53 49 49 50 51 52 53 53 53 53 53 53 52 55 56 56 56 56 56 57 58 59 59 59 59 58 57 57 56 56 56 55 55 56 56 56 56 56 55 55 55 56 56 57 57 57 58 58 58 58 58 57 57 57 57 57 57
59 59 59 59 60 61 62 61 60 60 60 61 61 60 59 59 59 59 58 58 57 57 56 55 55 54 53 52 51 50 50 51 51 50 50 50 50 50 50 51 52 53 54 55 55 55 54 50 49 50 50 52 53 55 55 53 52 52 51 55 56 56 56 56 56 57 58 58 59 58 58 57 56 56 55 55 55 55 55 55 55 56 56 56 55 55 54 55 55 56 56 56 57 57 57 57 57 57 56 56 56 56 56
59 59 59 59 60 60 60 60 59 59 60 60 60 59 59 58 58 58 57 56 56 55 55 55 54 54 53 52 50 50 49 50 50 50 50 50 50 50 50 51 52 53 53 54 54 54 54 49 48 49 50 51 53 55 55 53 52 53 52 55 55 55 56 56 56 57 57 57 57 57 57 56 55 55 55 54 54 54 55 55 55 56 56 56 55 54 54 54 55 55 56 56 56 56 56 56 56 56 55 56 56 56 56
59 59 59 59 59 60 60 59 59 59 59 59 59 59 58 57 57 56 56 55 55 55 54 54 54 54 54 53 51 50 49 49 49 50 50 49 49 50 50 51 52 52 53 53 53 53 52 48 47 48 50 51 53 54 52 52 53 53 53 55 55 55 56 56 56 56 56 56 56 56 55 55 55 54 54 54 54 54 55 55 55 56 56 56 55 54 53 54 55 55 56 56 56 56 56 56 55 55 55 55 55 55 55
59 59 59 59 59 60 59 59 58 58 59 59 59 58 57 56 56 55 55 55 54 54 54 54 54 54 54 54 52 51 49 49 49 49 49 49 49 49 50 51 51 52 52 52 51 50 49 45 46 47 49 50 52 52 52 52 51 51 52 55 55 56 56 56 56 55 55 55 55 55 55 55 55 54 54 54 54 54 55 55 55 55 56 56 55 54 53 53 54 55 56 56 56 56 56 55 55 55 55 55 55 55 55
59 59 59 59 59 59 59 58 57 57 58 58 58 57 56 55 55 55 54 53 53 53 53 53 53 54 54 54 53 52 50 49 48 48 48 48 48 49 50 50 51 51 51 50 49 46 44 42 44 47 48 50 50 51 53 53 52 52 54 55 56 56 56 55 55 55 55 55 55 55 55 55 55 55 54 54 54 54 54 55 55 55 56 56 55 55 53 53 54 54 55 56 56 56 56 55 55 55 55 55 55 55 55
60 60 60 60 59 59 59 58 57 57 57 57 57 56 55 55 54 53 52 52 52 52 52 52 53 53 53 53 53 52 51 50 49 48 47 47 48 49 50 50 51 51 50 48 44 40 38 39 43 47 48 49 50 51 55 54 52 53 57 56 56 56 56 55 55 55 55 55 55 55 55 55 55 55 55 54 54 54 54 54 54 55 55 55 55 55 54 53 53 53 54 55 56 56 56 56 55 55 55 55 55 55 55
61 61 60 60 59 59 59 58 57 57 56 57 57 56 55 54 53 52 51 51 51 51 52 52 52 53 53 53 53 53 52 51 50 49 48 48 48 49 50 50 51 50 50 44 38 35 36 38 42 47 49 49 49 51 54 53 53 54 56 55 55 56 56 56 55 55 55 55 55 55 55 55 55 55 55 54 54 53 53 53 53 54 54 55 55 55 54 54 53 53 53 54 55 56 56 56 56 55 55 55 55 54 55
62 61 61 60 59 59 58 58 58 57 56 56 56 56 55 53 52 51 51 51 51 51 52 52 52 52 52 52 53 53 53 53 52 52 50 50 50 50 51 51 51 50 46 39 37 36 36 39 42 47 50 49 49 51 53 52 54 56 55 55 55 56 56 56 56 55 55 55 54 54 54 54 54 54 54 54 54 54 53 53 53 53 53 54 54 55 55 54 53 53 52 53 54 55 56 56 56 56 55 55 55 54 54
62 61 61 61 60 59 59 58 58 58 57 57 57 56 55 54 53 52 51 51 51 51 52 52 52 52 51 52 54 55 53 54 54 54 54 53 52 51 51 51 50 46 39 37 36 36 37 40 43 46 49 48 49 51 53 52 55 57 56 55 55 56 56 56 56 55 55 55 54 54 53 53 53 53 54 54 54 54 54 54 53 53 53 53 53 54 54 54 53 53 52 52 53 54 55 55 56 56 55 55 55 54 54
62 62 61 61 60 59 59 59 59 58 58 58 57 57 56 55 54 53 52 52 52 52 53 53 52 51 50 51 53 52 49 49 49 50 51 53 53 53 52 50 46 41 36 37 36 36 37 40 43 46 49 49 49 50 53 53 55 57 56 56 56 56 56 56 56 55 55 54 54 54 53 53 53 53 53 53 54 54 54 54 54 53 53 53 53 53 53 54 53 53 52 52 52 53 53 55 55 56 55 55 55 55 54
62 62 62 61 60 60 59 59 59 59 59 59 58 58 58 57 56 55 54 54 53 53 53 53 52 50 48 49 45 39 38 38 39 40 41 45 49 51 49 45 40 37 37 37 36 36 37 40 43 46 48 48 49 50 52 53 54 55 56 56 56 56 56 56 55 55 55 54 54 53 53 53 53 53 53 53 53 53 53 53 54 53 53 53 53 52 53 53 53 53 53 52 52 52 52 53 54 55 55 55 55 55 54
62 61 61 61 60 60 59 59 59 59 59 59 59 59 59 59 58 57 57 56 55 55 55 55 52 49 48 41 35 31 30 31 31 32 33 35 39 41 41 39 38 37 37 37 37 37 37 40 43 45 46 47 48 50 51 52 54 55 55 55 55 55 56 56 55 55 55 54 54 53 53 53 53 53 53 53 53 53 53 53 53 53 53 53 53 52 52 52 53 53 53 53 52 52 52 52 53 54 55 55 55 55 54
59 59 59 60 60 59 59 58 58 59 59 59 59 59 58 59 59 59 59 57 56 56 57 55 48 41 39 33 31 30 29 29 30 31 32 32 32 34 37 37 38 37 37 37 37 37 37 39 41 43 45 46 47 49 51 54 54 53 53 54 54 55 55 55 55 55 55 54 54 53 53 52 52 52 53 53 52 52 52 53 53 53 53 53 53 52 52 52 52 52 53 53 53 52 52 52 52 53 54 54 54 54 54
57 57 57 58 58 58 57 56 56 57 58 60 59 56 55 57 57 58 59 56 54 54 55 51 44 37 33 31 30 30 30 31 31 31 31 31 32 33 35 36 37 37 37 37 38 38 38 39 41 42 44 45 46 48 50 53 53 52 52 52 53 53 53 54 54 55 55 54 54 53 53 53 52 52 52 52 52 52 52 52 52 53 53 53 53 53 52 52 52 52 52 53 53 53 52 52 52 52 53 53 53 54 54
57 57 56 56 57 57 56 55 55 55 55 59 58 55 54 54 55 55 56 52 49 48 48 46 42 38 34 31 30 30 30 32 32 31 30 31 31 32 32 33 34 35 36 37 37 38 38 39 40 41 44 45 46 48 50 52 52 51 51 51 51 51 52 52 53 53 54 54 53 53 53 53 53 52 52 52 53 53 52 52 52 52 53 53 53 53 52 52 52 52 52 52 53 53 53 53 53 52 52 53 53 53 53
56 56 56 56 56 56 56 55 55 55 54 56 56 55 54 53 53 52 52 50 47 45 44 41 40 37 34 31 30 30 30 32 33 33 30 30 30 31 31 30 32 33 35 35 36 37 38 39 40 41 43 44 45 47 50 53 53 51 50 50 50 50 50 50 51 51 52 52 52 52 53 53 53 53 52 52 53 53 53 52 52 52 52 52 53 53 53 52 52 52 52 52 52 53 53 53 53 53 53 52 53 53 53
56 56 55 56 56 56 56 55 55 54 53 53 54 54 54 52 51 50 50 49 46 43 41 39 38 36 33 31 30 30 30 31 31 30 29 30 30 30 29 29 30 32 34 35 36 37 38 38 39 40 42 43 45 47 50 55 53 50 50 50 49 49 49 48 49 49 50 50 51 51 52 52 52 53 53 53 53 53 53 53 52 52 52 52 52 52 52 52 52 52 52 52 52 52 53 53 53 53 53 53 53 52 52
55 55 55 55 55 56 55 55 55 54 53 51 52 53 53 51 50 49 48 47 45 42 40 38 37 36 34 32 31 30 31 31 31 30 30 30 30 30 29 28 29 31 32 34 35 36 37 37 38 39 40 42 45 47 50 55 54 51 50 50 49 48 47 47 47 47 48 49 49 50 50 51 52 52 52 53 53 53 53 53 53 53 52 52 52 52 52 52 52 52 52 52 52 52 53 53 53 54 54 53 53 52 52
55 55 54 54 55 55 55 54 54 53 53 51 51 52 51 50 49 47 46 45 44 41 39 38 37 37 37 35 33 32 31 32 32 32 32 31 31 30 28 28 28 29 31 33 35 36 37 36 37 37 38 41 44 46 48 52 54 53 51 50 49 48 47 46 46 46 47 47 48 48 49 50 50 51 52 52 53 53 53 53 53 53 53 52 52 52 52 52 52 52 52 51 52 52 52 53 53 54 54 54 53 53 52
54 54 53 53 54 54 54 54 54 53 53 51 51 51 50 48 47 46 45 44 42 41 39 38 38 38 38 37 36 33 32 32 32 33 32 33 32 31 29 27 26 27 29 32 33 34 33 33 34 35 35 38 42 46 47 50 53 54 52 50 50 49 47 46 45 45 46 47 47 47 47 48 49 50 51 52 52 53 53 53 53 53 53 53 52 52 52 52 52 52 52 51 51 52 52 53 53 53 54 54 54 53 53
53 52 52 52 53 53 53 53 53 53 53 52 52 51 50 47 46 46 45 43 42 41 41 40 40 39 39 39 38 36 34 34 34 34 34 35 34 32 29 27 26 26 28 31 32 32 32 32 32 32 32 35 39 44 46 49 52 55 54 52 50 49 48 46 46 46 46 46 46 46 47 47 48 49 50 50 51 52 53 53 53 53 53 53 52 52 52 52 52 52 52 52 52 52 52 52 53 53 54 54 54 54 53
52 52 51 51 51 52 52 52 52 52 52 52 52 52 50 47 46 45 44 43 43 42 41 41 40 39 38 38 37 37 38 40 39 37 36 36 35 32 29 28 26 25 27 30 31 32 32 32 32 32 32 33 37 41 45 47 51 54 55 53 52 50 49 47 47 47 47 47 46 46 46 47 48 48 49 50 50 51 52 53 53 54 54 53 53 52 52 52 52 52 52 52 52 52 52 52 52 53 53 54 54 54 54
52 52 51 51 50 50 51 51 52 52 52 52 52 51 50 48 46 45 44 43 42 41 41 40 40 39 39 38 37 37 38 41 39 37 37 37 36 34 32 30 28 26 26 29 32 33 34 33 33 32 32 33 35 38 42 45 49 53 55 55 53 52 50 49 48 48 48 48 47 46 46 46 47 48 49 49 50 50 51 52 53 54 54 54 53 53 52 52 52 52 52 51 51 52 52 52 52 52 53 53 53 54 53
52 51 51 50 50 50 50 51 51 51 52 51 51 51 50 48 46 45 44 43 42 41 41 40 40 39 40 39 38 38 39 41 40 37 37 37 37 37 36 34 31 27 25 28 30 32 33 34 34 33 33 32 32 35 38 42 45 49 53 55 54 53 52 50 49 49 49 49 48 47 47 47 47 48 49 49 50 50 51 52 53 53 54 54 54 53 52 52 52 52 52 51 51 51 51 51 52 52 52 53 53 53 53
51 51 51 50 50 50 50 50 50 51 52 51 51 51 50 48 47 46 44 43 42 41 41 41 40 39 39 39 39 39 40 39 39 38 37 37 37 37 36 34 31 29 26 28 28 29 31 32 33 33 33 32 32 32 34 37 41 44 50 53 54 54 54 52 51 50 50 50 49 49 48 48 48 48 49 50 50 50 51 52 52 53 54 54 54 53 53 52 52 52 51 51 51 51 51 51 51 51 52 52 53 53 53
51 51 51 50 50 50 50 50 50 51 52 51 51 50 50 48 47 46 44 43 43 42 41 40 40 39 38 38 39 40 41 40 39 39 38 38 38 37 36 35 33 31 28 28 27 28 28 30 32 32 33 32 32 31 31 33 36 40 43 48 52 54 54 53 52 51 50 50 50 50 50 49 49 49 49 50 50 50 51 51 52 53 54 54 54 54 53 52 52 52 51 51 51 51 51 51 51 51 52 52 52 52 52
51 51 51 51 50 50 50 50 50 50 51 51 50 50 49 47 46 45 44 43 42 41 39 39 38 38 37 38 38 38 39 39 39 39 38 38 38 37 36 36 34 33 31 29 28 27 27 28 29 31 32 32 32 32 31 31 32 35 38 44 48 51 53 53 53 52 52 51 51 51 50 50 50 50 50 50 51 51 51 52 52 53 54 54 54 54 53 53 52 52 51 51 51 51 50 51 51 51 52 52 52 52 52
51 51 51 51 50 50 51 50 50 50 51 51 50 49 48 47 46 46 45 45 44 42 40 39 39 39 39 39 38 38 38 39 39 39 39 39 38 38 37 37 35 33 32 31 29 28 27 27 28 29 30 31 31 31 31 31 31 32 35 39 43 47 50 52 52 52 53 53 52 52 51 51 50 50 50 50 51 52 52 52 52 53 53 54 54 54 53 53 53 52 52 51 51 50 50 50 51 51 52 52 52 52 52
51 51 51 51 51 51 51 50 50 51 51 50 50 49 48 47 47 46 46 46 45 44 42 40 41 42 43 40 39 38 39 40 40 39 39 39 38 38 38 37 36 34 33 32 31 30 28 28 28 29 29 30 30 31 31 31 31 31 32 35 38 41 45 47 50 51 52 53 53 53 52 52 51 51 51 51 51 52 52 52 53 53 53 53 53 53 53 53 53 52 52 51 51 50 50 50 51 51 52 52 52 52 52
51 51 51 51 51 51 51 51 51 51 51 50 50 49 48 48 48 47 46 46 46 44 43 41 41 43 43 41 40 40 40 40 39 38 38 37 37 37 37 37 36 35 34 32 32 32 31 30 30 30 29 30 30 30 30 31 30 31 31 33 35 37 41 44 46 48 50 51 52 53 53 52 52 52 51 51 51 51 52 52 53 53 53 53 53 53 53 52 52 52 51 51 51 50 50 50 50 51 51 52 52 52 52
51 51 51 51 51 51 51 51 51 51 51 50 50 50 49 48 48 47 47 46 46 45 43 41 41 41 42 41 41 41 43 41 40 39 38 37 37 37 36 37 37 36 35 34 33 32 32 32 31 30 30 30 29 29 30 30 30 30 30 31 33 35 37 40 43 45 46 48 50 51 52 52 52 52 52 51 51 51 52 52 52 52 52 52 52 52 52 52 52 51 51 51 50 50 50 50 50 50 51 51 52 52 52
51 51 51 51 51 51 52 52 51 51 51 51 50 50 49 49 48 48 47 46 46 45 42 41 41 41 41 42 42 41 42 41 40 39 38 38 38 37 37 37 37 37 37 37 36 34 33 32 32 31 30 30 29 29 30 30 30 30 30 30 31 32 34 37 40 42 43 44 46 47 50 51 52 52 52 51 51 51 51 52 52 52 52 52 52 52 51 51 51 51 50 50 50 50 50 50 50 50 50 51 51 51 51
52 51 51 51 51 52 52 52 51 51 51 51 50 50 49 49 48 48 47 46 46 45 42 42 41 41 41 42 41 41 41 41 40 39 39 38 38 38 37 37 37 37 37 37 37 36 34 33 32 31 30 30 29 29 29 29 29 29 29 30 30 31 33 36 39 41 41 42 42 43 46 49 50 50 51 51 51 51 51 52 52 52 52 51 51 51 51 51 51 50 50 50 50 50 50 50 50 50 50 50 50 51 51
52 52 52 51 52 51 51 51 52 51 51 51 50 50 50 49 48 48 47 46 46 45 44 44 43 42 42 42 42 41 41 41 41 39 39 38 38 37 37 37 37 37 37 38 38 37 36 35 33 32 31 30 29 29 29 29 29 29 29 29 30 31 34 37 39 40 40 40 40 40 41 46 48 49 50 50 51 51 52 52 52 52 52 51 51 51 51 51 51 50 50 50 50 49 49 49 50 50 50 50 50 50 51
52 52 52 52 52 51 50 51 51 51 51 51 50 50 50 49 48 47 46 46 46 46 45 44 43 42 43 43 43 42 42 43 42 40 39 38 37 37 37 36 36 36 36 36 36 35 35 35 35 35 36 33 32 31 30 29 29 29 29 29 30 31 33 35 36 36 37 37 38 37 37 41 44 47 48 49 50 50 51 52 52 52 52 52 51 51 51 51 50 50 50 50 50 49 49 50 50 50 50 51 51 51 51
53 52 52 52 52 51 50 51 51 51 51 51 51 50 50 49 47 46 46 46 46 46 46 44 43 43 43 44 44 44 44 44 44 42 40 38 37 37 37 37 37 37 36 36 35 35 35 35 36 38 39 37 35 33 32 31 30 30 29 29 30 30 31 32 32 33 34 35 35 36 35 36 38 42 45 46 48 50 51 51 52 52 52 52 52 51 51 51 50 50 50 50 50 49 49 50 50 50 51 51 52 52 52
53 53 52 52 51 51 50 51 51 51 51 51 51 50 50 48 47 47 46 46 46 46 46 46 45 44 42 44 44 44 44 44 44 43 41 40 39 39 39 40 40 39 38 37 37 36 36 36 37 37 37 36 35 34 33 33 33 33 32 31 31 31 31 31 32 32 32 32 33 34 34 34 34 36 38 41 44 46 48 50 51 51 52 52 51 51 51 50 50 50 50 50 50 50 50 50 50 50 51 52 52 52 52
53 53 53 52 51 50 50 50 51 52 51 51 51 50 50 49 48 48 47 46 46 46 47 46 45 45 44 44 44 44 44 43 43 43 42 41 41 41 41 42 41 41 40 39 38 37 37 38 38 37 36 35 35 34 34 36 37 36 34 33 32 32 32 32 32 31 31 32 32 32 33 33 33 33 34 36 38 40 42 46 48 50 50 50 50 51 51 50 50 50 50 50 50 50 50 50 50 50 51 51 51 51 51
53 53 53 52 51 50 50 50 51 52 51 51 51 51 50 50 49 48 48 47 47 46 47 47 46 46 46 47 46 44 43 42 42 43 44 42 41 41 43 42 41 40 39 38 38 37 37 37 37 36 35 36 36 35 34 36 36 35 34 34 34 33 33 32 32 32 32 32 32 32 33 33 33 33 33 34 35 37 38 41 44 47 48 49 49 50 50 50 49 49 50 50 50 50 49 49 50 50 51 51 51 51 51
53 53 54 53 51 50 50 50 51 52 52 51 51 51 51 50 49 48 47 48 48 48 49 49 47 46 46 46 45 43 42 42 42 43 43 41 41 40 41 40 39 38 37 37 37 37 40 39 38 37 36 36 35 35 34 34 34 34 33 34 34 34 33 33 33 32 32 32 32 32 33 33 33 34 34 34 35 35 36 37 40 43 45 46 47 47 48 48 48 48 49 49 49 49 49 49 49 50 50 50 51 51 51
54 54 54 53 52 51 51 51 52 53 52 52 52 51 51 50 49 48 48 48 47 47 47 49 49 48 46 46 46 45 42 41 41 41 41 41 41 41 42 40 39 38 38 38 38 39 41 40 39 38 37 36 36 35 34 34 34 33 33 34 33 33 32 32 32 32 32 32 32 32 33 33 34 34 34 34 35 35 35 36 37 38 41 43 45 46 46 46 46 47 47 48 48 48 48 48 49 49 50 50 50 50 50
53 54 54 54 53 52 52 51 52 52 52 52 52 52 50 50 50 50 49 48 46 46 47 47 48 48 47 47 46 46 44 41 40 40 41 40 41 42 43 42 41 41 40 39 38 38 39 38 37 37 36 36 35 35 34 34 33 33 33 33 33 32 32 32 32 32 32 31 31 32 32 33 34 34 35 35 35 35 35 36 36 36 38 39 41 42 42 44 45 45 46 46 46 47 47 47 48 48 49 49 49 49 49
53 54 54 54 53 53 52 52 52 52 52 53 52 51 51 51 51 50 48 47 46 46 48 48 47 46 47 46 46 46 44 41 41 42 44 41 41 40 40 39 41 43 43 42 42 42 42 39 38 37 36 36 36 35 35 34 34 33 33 33 32 32 32 32 32 32 31 31 30 31 31 32 33 34 34 35 35 35 35 36 36 36 37 37 37 37 37 39 41 43 44 45 45 46 46 47 47 48 48 48 48 48 48
53 54 54 54 54 53 52 52 52 53 54 54 52 50 50 49 49 49 48 47 47 47 48 49 48 46 45 46 46 45 42 41 41 42 45 42 39 37 36 39 42 45 45 46 47 47 46 41 39 37 37 38 38 38 37 36 35 34 34 34 33 33 32 32 32 32 32 31 30 30 30 31 32 32 33 33 34 34 35 35 36 36 36 35 35 36 37 38 41 42 43 44 45 45 46 46 47 47 47 47 48 48 48
54 54 54 54 54 53 52 52 52 53 54 53 52 51 50 50 49 49 48 48 48 48 48 48 49 48 46 46 46 46 45 42 41 41 45 41 39 37 37 41 44 44 39 43 46 48 46 43 42 42 41 42 42 41 39 38 37 36 35 34 33 33 33 33 32 32 32 31 31 31 30 31 31 31 31 32 32 32 32 32 33 34 34 34 34 35 34 36 39 41 43 43 44 45 45 46 46 46 47 47 47 47 47
54 54 54 54 54 54 53 53 53 52 53 54 53 52 51 50 50 49 48 49 49 49 49 50 50 49 48 47 46 46 47 45 43 41 42 42 43 44 44 42 41 39 36 40 44 46 46 42 42 45 47 45 42 41 38 37 36 35 35 34 34 34 34 34 33 33 33 33 33 32 32 32 32 32 31 32 32 32 32 32 32 33 33 33 33 33 33 35 38 41 42 43 43 44 45 45 46 46 46 47 47 47 47
54 54 54 54 54 54 54 53 53 53 53 53 53 53 52 51 51 51 50 50 50 50 49 50 50 50 50 48 47 47 47 46 45 42 41 41 42 44 45 44 44 44 41 41 44 46 48 43 43 46 50 44 41 41 41 38 37 37 39 39 38 37 37 37 37 37 37 36 35 34 33 33 33 33 32 33 33 34 33 33 32 32 32 33 33 34 36 38 39 40 40 40 41 42 43 44 45 45 46 46 47 47 47
53 54 54 54 54 54 54 53 53 53 53 53 53 53 53 53 53 52 51 50 50 50 50 50 49 49 50 49 48 46 46 46 44 42 41 41 42 44 46 46 46 47 49 48 47 46 46 45 46 48 50 43 42 44 45 42 40 39 43 42 41 39 40 40 40 40 39 38 38 37 37 38 38 37 37 37 36 35 35 34 34 33 33 33 33 34 34 34 35 35 36 37 38 41 42 43 44 45 46 46 47 47 47
53 54 54 54 54 54 53 53 53 53 53 53 53 53 53 53 53 52 50 49 49 49 50 50 49 47 47 49 48 47 46 47 47 46 43 42 43 44 43 47 49 49 48 49 49 48 44 46 47 48 48 46 46 46 46 43 41 41 43 42 41 41 42 42 41 41 41 41 41 42 42 43 42 41 41 40 39 38 37 37 36 35 35 35 34 34 33 34 34 35 35 36 36 37 41 43 44 46 46 47 47 47 47
53 54 54 53 53 53 54 54 54 53 54 54 53 53 53 53 53 52 50 50 49 49 49 50 50 49 47 48 48 48 47 48 48 48 47 46 45 44 44 45 47 49 51 50 50 48 46 46 47 47 47 47 47 46 44 44 43 43 43 42 42 42 42 42 43 43 43 44 44 44 44 45 44 44 43 42 41 41 40 39 38 37 37 36 35 35 35 35 36 37 36 37 38 40 43 44 46 46 47 47 48 48 47
53 53 54 54 53 53 54 54 54 54 54 54 54 53 53 52 52 51 50 49 49 49 50 50 50 50 50 49 49 50 49 48 49 50 50 50 48 46 45 46 47 49 50 50 49 48 47 46 46 47 46 46 46 46 44 45 45 44 44 42 42 42 43 43 44 44 44 44 44 44 44 44 44 44 44 43 43 43 42 41 40 38 37 36 36 36 36 37 38 38 39 40 41 43 44 45 46 47 47 48 48 48 47
53 53 54 54 54 54 54 54 53 54 54 54 54 53 53 52 51 50 49 49 50 51 50 49 49 50 51 50 50 50 50 49 49 50 52 52 50 49 47 48 48 48 49 49 48 48 47 47 46 46 45 45 44 44 45 45 44 44 44 43 42 43 44 44 44 44 44 44 44 44 44 43 43 43 43 43 43 43 43 41 40 37 36 35 34 34 35 34 35 36 37 39 41 43 44 45 46 47 47 48 48 48 47
54 54 54 54 54 54 54 54 54 54 54 54 54 54 53 53 51 50 50 50 50 50 50 49 48 49 50 49 50 50 50 50 49 49 51 52 52 51 50 49 48 47 48 47 47 47 47 47 47 46 46 45 44 44 44 44 44 44 44 44 44 44 44 44 43 43 44 44 44 43 43 43 42 42 42 43 43 43 42 40 37 35 34 33 32 33 34 34 34 35 35 38 41 44 45 46 46 47 47 47 47 47 47